Vorticity
5 5 4 4 4 3 3 2 2 2 3 3 5 6 6 7 7 7 7 7 7 6 6 6 6 6 6 6 6 5 4 3 3 5 5 5 7 6 6 5 4 5 6 7 8 9 6 8 10 9 14 15 13 11 10 8 5 6 5 6 6 5 7 10 12 6 6 6 8 21 13 4 9 6 4 5 6 4 4 4 3 9 9 5 7 8 8 8
4 4 4 3 3 2 2 2 2 2 3 4 6 5 5 6 7 8 8 7 7 7 7 6 6 6 6 6 5 4 4 4 5 5 5 6 6 6 6 5 5 6 7 8 8 9 7 9 11 10 14 14 14 12 10 7 3 5 4 4 6 5 5 7 13 13 12 9 10 20 12 5 8 2 1 3 4 7 5 3 4 8 8 7 7 7 6 5
4 4 3 3 2 2 2 2 2 2 4 6 6 5 5 5 7 8 8 8 7 7 7 6 5 5 6 5 4 4 3 5 5 4 6 6 6 7 6 5 6 7 8 8 8 8 9 13 11 9 14 15 14 12 10 7 2 4 4 4 8 9 7 5 10 16 18 14 12 13 7 6 5 -2 1 5 5 6 5 3 4 7 7 8 7 6 5 5
3 3 3 2 2 2 2 2 2 3 5 6 6 5 5 6 8 9 8 8 7 7 6 6 5 5 4 3 3 3 3 6 4 5 7 5 7 7 5 5 7 8 7 8 9 9 11 15 10 7 15 18 17 16 14 9 5 5 5 5 11 14 11 8 8 14 20 16 13 11 5 5 5 1 3 5 4 4 6 3 3 7 6 8 8 6 7 6
2 2 1 1 2 2 2 2 2 3 5 6 6 5 6 8 9 8 7 7 7 7 6 5 4 4 3 3 3 3 5 6 4 7 7 6 8 6 5 6 7 8 8 8 8 10 13 15 9 7 13 17 19 17 13 9 7 5 5 6 10 11 8 7 4 9 24 18 12 13 6 4 3 3 6 3 3 5 10 6 2 7 7 9 8 6 8 6
2 2 1 2 2 2 2 2 2 3 4 6 6 6 8 9 9 7 6 6 6 5 4 4 3 3 3 3 5 4 5 5 5 8 6 6 8 6 6 6 7 8 7 8 9 11 16 14 7 6 10 15 16 13 8 6 7 7 7 9 13 10 5 7 1 4 29 23 10 15 11 8 4 1 4 3 3 2 7 6 0 5 8 8 7 5 8 7
3 2 2 2 2 3 2 2 2 3 4 6 6 6 8 8 8 6 6 6 5 4 4 3 4 5 4 5 5 4 6 6 6 8 7 7 7 6 5 6 8 7 7 9 9 13 16 12 5 4 8 12 12 9 9 8 11 12 9 12 13 8 5 11 4 2 28 27 9 12 13 16 15 7 4 3 3 1 3 5 1 5 9 7 5 5 5 6
6 5 4 4 3 3 2 3 2 3 4 5 6 6 8 8 7 6 6 6 5 5 5 5 5 5 4 5 3 4 7 7 7 9 8 7 8 7 4 6 7 6 8 8 10 16 15 8 4 4 8 14 14 10 11 9 9 10 9 14 11 5 8 13 11 6 25 33 17 9 11 18 16 8 7 7 4 2 3 4 2 4 10 9 5 5 6 5
6 7 7 5 4 4 3 3 3 3 4 5 5 6 8 8 7 7 6 6 5 5 5 5 5 4 4 3 4 6 7 8 9 9 7 8 9 6 5 6 6 7 8 7 13 16 12 7 2 4 9 14 18 15 14 10 9 13 14 17 12 7 10 14 17 12 19 32 21 8 13 19 9 -1 7 10 3 5 8 5 5 5 6 10 7 5 6 4
6 8 8 7 5 5 4 3 3 3 4 4 4 5 8 8 7 6 5 5 5 5 5 5 4 4 4 3 5 7 9 11 10 9 9 10 9 6 5 6 7 8 7 10 15 12 11 7 1 5 10 16 22 17 11 9 11 19 19 16 11 7 9 13 15 12 18 29 21 9 12 12 3 4 9 4 3 8 6 1 4 7 4 7 8 6 5 4
8 9 9 8 6 5 4 3 3 4 4 3 3 4 8 8 7 5 4 4 4 6 5 5 5 4 4 3 6 9 11 13 10 11 11 9 8 5 5 7 7 8 8 14 14 10 12 6 1 7 11 18 22 12 4 6 10 14 13 9 9 8 6 11 14 15 20 25 21 9 6 6 -1 7 9 0 6 7 7 8 3 6 7 5 8 6 4 3
10 11 10 8 6 5 3 3 3 4 3 3 2 3 8 8 5 3 3 4 5 6 6 6 5 3 3 5 9 11 12 14 12 11 11 8 7 6 7 7 7 8 10 15 12 11 13 6 3 6 10 15 12 6 6 9 9 10 10 6 8 11 8 10 12 15 18 19 22 11 3 8 2 5 8 5 9 2 5 14 4 4 9 6 7 7 5 3
11 11 10 7 6 4 2 3 3 3 2 2 1 3 8 7 3 2 3 6 7 7 6 5 3 3 5 7 12 13 14 15 11 10 10 6 6 7 8 6 7 9 11 15 13 12 13 9 6 5 9 15 9 8 11 10 9 7 10 7 4 6 7 9 8 11 16 19 26 22 8 3 3 8 9 9 13 4 4 10 4 5 5 3 3 5 8 6
11 10 8 6 5 3 2 3 2 2 2 1 1 4 7 4 2 3 5 7 6 6 5 3 4 5 7 10 14 14 14 12 9 10 7 4 8 9 8 6 7 10 11 15 14 11 13 11 9 5 5 15 13 8 9 8 7 4 10 15 7 4 5 6 8 8 14 22 23 23 20 13 10 12 10 14 16 6 6 9 5 6 5 0 -2 2 4 5
9 8 7 5 4 3 2 2 2 2 1 1 2 5 5 2 3 5 6 7 5 4 4 4 6 7 10 13 14 13 12 11 8 7 5 6 9 8 7 7 7 11 12 15 13 10 12 13 12 3 2 16 14 5 7 6 1 -0 5 9 3 4 6 4 10 8 11 25 23 17 23 23 13 7 10 16 12 5 8 9 3 6 13 7 2 8 3 -4
6 5 5 3 3 3 2 2 2 1 1 2 4 4 2 3 5 6 6 5 4 4 4 6 7 9 13 12 11 11 11 10 8 7 7 8 8 7 7 8 9 12 13 14 13 9 11 16 14 3 5 18 10 3 8 4 3 2 -2 1 1 0 1 2 9 11 11 18 22 19 18 21 17 10 15 14 7 7 11 10 5 4 11 8 4 12 9 1
5 5 4 4 3 3 2 2 2 2 3 3 3 2 3 5 6 6 6 5 5 5 5 7 9 12 13 11 10 10 9 9 8 8 9 8 7 7 7 9 11 12 13 13 12 10 11 16 14 4 8 16 5 2 7 4 7 6 2 6 9 4 -1 -0 3 9 15 13 17 23 23 34 31 13 12 12 9 10 7 6 6 6 7 6 6 8 8 9
5 5 4 4 3 3 3 3 3 3 3 3 3 4 5 7 7 7 7 6 6 8 10 11 11 12 11 9 8 7 8 8 8 9 9 8 7 6 7 9 11 12 13 13 11 12 13 16 12 3 10 15 4 3 7 3 5 5 3 3 5 9 5 3 2 1 12 15 14 17 21 38 37 14 6 6 6 9 8 6 6 13 13 6 8 9 8 12
4 4 4 4 4 4 4 4 4 3 2 3 5 6 8 8 9 9 10 13 15 16 18 17 14 12 10 10 8 5 7 7 7 8 9 9 6 6 8 8 10 12 13 14 11 12 15 16 12 8 16 16 3 4 5 1 2 0 1 -0 1 7 5 6 7 -2 1 10 14 14 13 20 24 20 14 6 4 7 8 8 6 12 15 9 9 8 7 12
4 5 4 4 3 3 3 3 3 3 4 6 7 9 11 12 14 17 19 20 19 17 18 19 14 11 11 9 7 5 5 5 8 10 9 8 5 6 9 8 9 11 13 14 11 14 18 12 12 16 16 8 -0 4 5 0 1 1 2 4 3 6 5 6 9 3 -2 3 10 14 15 14 11 15 17 7 2 6 9 9 6 7 7 11 16 10 4 7
5 4 3 2 2 2 3 4 4 6 7 9 12 15 18 20 22 24 20 15 15 15 14 15 12 12 14 9 6 5 5 6 9 10 9 7 6 7 8 9 9 10 15 16 13 17 17 8 10 14 8 2 0 3 6 4 3 5 8 6 -1 2 7 4 4 4 -2 -0 7 9 14 19 12 9 14 10 -2 -1 7 7 5 7 3 5 15 13 8 9
3 3 1 1 2 3 5 6 7 9 11 15 19 21 22 20 20 18 10 8 17 20 16 13 11 13 15 9 4 4 7 10 10 10 9 6 6 6 6 9 8 11 16 17 19 18 13 7 3 -1 -3 -2 2 4 6 7 3 5 9 4 -4 -2 6 6 2 -1 -5 -3 5 7 10 19 20 12 7 10 9 3 6 6 3 6 6 5 7 8 7 8
2 1 1 1 2 5 7 8 10 14 18 21 20 19 17 13 12 10 5 5 8 9 12 12 10 12 14 8 5 7 11 12 10 9 7 6 6 5 8 9 7 11 12 13 20 17 11 9 1 -2 3 3 4 5 5 7 6 5 8 6 3 1 3 7 3 -3 -2 -2 0 4 6 9 18 20 10 5 11 11 8 10 9 5 6 8 7 7 6 5
2 1 1 2 3 6 9 11 16 20 20 17 14 11 10 9 9 7 6 5 1 -2 4 7 8 13 13 7 7 11 11 10 9 8 6 6 6 6 10 10 8 10 9 9 14 14 12 13 9 9 12 10 5 2 5 9 9 11 11 5 3 1 1 5 1 -3 2 0 -2 3 5 2 5 16 18 7 4 9 8 8 12 10 8 10 11 10 9 7
2 2 2 3 6 8 12 16 20 19 14 11 9 9 10 10 10 10 9 8 6 4 5 6 9 10 7 8 10 10 9 8 8 8 9 8 7 9 11 8 8 9 7 7 9 11 12 13 14 11 9 10 3 0 7 8 11 19 14 4 2 1 1 3 0 -1 2 -1 -0 4 4 3 1 5 16 13 5 9 10 5 7 10 10 10 12 12 11 11
3 4 3 5 9 11 16 19 16 12 9 9 9 9 11 11 11 13 13 12 10 9 9 8 7 6 7 11 10 8 8 7 8 9 9 9 9 13 11 7 11 11 6 6 7 11 13 11 11 8 6 7 4 4 1 -0 16 26 13 5 6 2 -3 -2 -1 1 3 1 2 3 -2 -1 2 2 8 13 10 12 12 7 6 9 9 9 11 13 11 10
3 5 5 9 13 16 20 17 10 8 9 9 10 10 10 11 11 12 14 14 10 9 12 11 8 7 9 10 7 7 8 7 10 9 7 9 11 11 10 9 11 9 6 7 6 7 13 13 9 8 9 8 8 7 -2 1 20 20 6 6 7 -0 -4 -2 1 1 2 4 1 -1 -1 -1 5 6 4 7 11 12 9 4 5 9 10 9 9 11 11 10
6 8 10 15 17 17 18 13 6 7 9 9 10 10 9 10 11 10 12 13 9 10 14 11 8 7 8 8 7 8 6 5 8 9 9 9 7 5 9 9 8 9 9 11 9 6 11 15 10 9 11 11 12 5 -1 10 18 9 4 5 3 -0 -4 -2 4 2 3 7 0 -1 5 1 3 11 8 5 7 8 8 4 3 6 8 9 4 1 6 8
12 14 15 18 19 16 12 9 7 8 9 10 10 10 9 10 10 8 11 11 9 11 13 10 8 8 8 8 8 6 6 5 6 8 9 5 3 5 8 8 9 13 9 8 12 7 8 14 12 12 12 11 12 2 1 14 14 7 5 -0 -1 1 -0 2 5 0 1 9 6 1 4 1 1 11 10 6 8 7 7 6 4 4 6 9 4 -2 2 5
16 17 16 18 18 13 7 6 8 7 8 11 10 9 9 9 10 10 10 8 7 8 8 8 7 6 7 9 8 5 5 8 8 8 5 2 4 6 7 6 9 12 9 8 12 6 7 14 17 19 15 10 10 6 7 13 10 9 5 -3 -1 3 3 6 6 4 6 15 14 3 2 4 5 11 11 6 7 8 8 7 5 6 5 6 7 4 4 6
17 17 16 17 15 9 5 7 9 7 8 11 11 9 9 9 10 11 10 8 9 8 6 10 11 8 9 12 13 10 10 13 12 7 3 3 5 6 8 8 7 10 11 11 13 12 15 21 23 23 19 16 19 19 17 11 7 10 3 -4 2 5 5 4 3 9 9 6 8 5 4 7 5 8 12 6 4 6 7 6 7 8 6 6 9 7 4 6
17 16 16 14 10 6 6 8 9 8 7 9 12 10 9 9 10 10 10 10 11 8 7 10 13 13 10 9 12 12 14 16 12 6 4 5 7 8 9 8 7 12 12 11 14 15 15 17 16 15 16 22 25 24 19 9 5 8 1 -1 6 3 1 2 3 11 7 -6 -2 5 5 8 6 6 9 6 6 7 5 6 8 8 7 7 9 7 4 6
16 15 14 11 7 6 7 9 10 8 5 7 12 11 9 8 9 9 9 10 10 9 10 10 8 11 10 5 6 8 12 17 15 10 7 7 8 8 8 8 9 11 11 12 13 10 7 10 11 8 11 19 19 15 13 7 6 6 -1 1 7 0 -2 2 2 6 6 -3 -1 3 5 7 5 4 6 5 6 10 7 4 4 5 7 8 8 8 5 7
15 15 12 8 5 5 6 8 9 9 5 4 8 11 11 7 5 7 7 8 10 11 12 9 6 9 8 2 3 7 12 18 20 15 7 7 10 8 7 9 10 10 9 9 10 7 2 4 13 11 7 13 14 11 6 2 7 8 -2 -3 2 0 2 4 2 3 5 3 0 1 5 8 5 4 4 0 2 11 11 5 3 5 7 7 7 8 7 9
14 14 11 7 5 4 5 7 8 8 8 5 4 8 11 7 4 7 7 6 8 8 8 9 7 8 5 2 5 8 12 15 16 15 6 3 7 8 9 13 13 10 9 10 12 11 0 -0 14 11 3 12 14 8 3 -1 5 6 -3 -3 2 2 1 2 5 4 4 4 1 0 2 3 7 9 7 6 10 15 14 8 7 8 7 6 6 8 7 8
11 14 11 6 4 3 4 6 6 7 8 7 6 5 6 5 6 9 7 5 6 6 7 9 8 7 4 4 7 6 10 13 13 16 10 2 4 8 12 18 17 9 7 8 9 10 0 -2 10 7 4 19 18 6 5 4 4 3 -3 -1 4 6 5 2 2 5 9 11 5 3 1 -0 6 9 11 16 14 12 13 11 9 10 8 7 7 9 9 10
10 13 13 8 5 3 3 4 5 6 7 8 8 7 6 5 5 6 4 5 7 7 9 9 7 7 3 4 8 5 6 11 14 21 15 6 7 10 9 14 14 8 9 7 2 7 4 -5 7 14 9 19 19 9 11 12 11 9 3 2 4 6 8 8 7 8 12 13 7 5 3 -1 2 6 8 9 3 2 6 7 7 6 4 10 14 14 14 14
9 11 13 11 8 4 3 3 3 4 6 6 7 8 8 8 7 6 4 4 6 6 8 9 9 9 6 5 8 7 8 11 15 21 17 9 10 12 9 9 9 7 11 9 0 7 8 -4 8 21 9 7 11 5 4 9 13 14 8 6 8 7 4 7 15 18 15 10 2 -0 0 -3 1 8 8 5 -0 -1 0 2 7 2 -1 10 18 18 18 16
11 10 12 12 10 7 5 4 3 3 4 5 5 5 6 7 7 8 8 8 7 6 6 7 9 10 8 7 7 6 10 12 12 17 17 11 9 10 8 7 8 6 7 10 4 6 8 0 8 20 11 4 2 -3 0 4 7 12 12 8 8 8 3 -1 5 12 13 12 6 3 4 2 1 7 11 11 8 4 6 10 10 2 2 13 17 18 17 14
13 12 13 13 12 10 8 6 4 4 4 3 3 3 3 4 4 6 8 9 9 9 8 7 8 10 8 9 8 6 8 10 11 14 14 11 7 7 5 4 8 7 4 9 9 5 4 3 9 15 7 -2 -4 -0 9 11 6 8 13 15 13 9 4 1 4 5 4 8 10 10 9 6 5 8 14 21 20 14 15 16 10 5 10 15 16 16 15 13
13 13 14 14 13 12 11 10 7 5 5 4 3 3 3 5 6 5 6 8 8 10 10 8 8 9 8 9 9 7 7 8 11 12 12 12 9 3 2 3 4 3 3 9 11 6 2 3 9 11 2 -3 1 3 2 5 10 9 9 13 15 13 8 4 7 10 9 11 14 14 13 9 10 12 15 21 23 22 22 19 13 14 15 13 11 12 12 12
10 10 12 14 14 12 11 11 11 9 8 6 5 5 6 7 6 5 5 6 7 8 9 10 9 8 7 7 7 6 7 8 9 11 14 15 7 -3 -1 4 4 3 5 8 10 11 8 5 5 5 -1 -1 4 4 -2 -2 6 10 9 5 5 10 10 4 1 2 4 6 5 9 12 9 8 8 10 12 10 12 21 20 14 13 13 11 10 9 9 10
7 6 7 10 12 13 12 11 12 12 11 11 10 9 9 7 5 5 5 6 8 8 8 8 9 9 9 7 6 5 6 6 6 9 14 14 6 -2 -0 7 8 8 8 7 6 8 10 9 8 5 2 3 5 5 4 -0 -3 0 6 6 6 9 8 6 8 6 2 1 0 6 11 9 7 5 6 10 7 5 12 15 10 10 13 14 11 8 8 7
7 6 6 6 7 9 11 11 12 12 12 13 14 14 13 10 7 5 6 7 7 6 6 8 8 9 10 9 7 5 5 5 4 4 8 11 8 5 5 10 10 6 4 4 4 5 7 10 12 9 4 3 3 2 1 1 2 2 2 3 9 11 7 4 5 2 1 3 5 10 13 14 15 9 5 11 12 10 10 8 8 10 14 15 12 9 9 7
10 8 8 7 7 6 7 8 9 11 12 12 13 14 14 13 10 8 8 8 6 6 7 8 6 7 8 9 9 6 5 6 6 4 5 6 8 9 8 8 8 6 2 -1 -1 4 8 9 11 12 5 -4 -2 5 5 3 6 9 9 7 6 6 4 1 -3 -6 -0 7 9 9 8 10 13 10 7 9 11 11 9 8 9 8 7 11 12 9 7 8
15 12 10 9 9 8 7 7 6 7 8 10 11 11 12 13 12 12 11 7 6 9 9 6 7 8 6 7 8 8 7 7 7 6 6 3 4 9 9 5 5 8 6 -0 -4 0 6 7 7 10 8 0 -1 5 6 2 1 4 10 15 13 8 3 2 3 6 11 14 13 10 8 6 6 9 10 7 6 9 9 7 9 7 3 6 11 9 6 7
14 15 13 10 10 10 10 9 7 6 6 7 9 9 10 11 11 13 14 8 6 10 8 5 7 7 5 6 7 8 9 9 7 7 7 5 2 3 7 7 5 7 8 4 -0 -0 2 5 5 5 5 2 -2 -3 -1 1 2 4 9 14 16 14 9 7 9 10 9 7 5 5 7 7 8 12 14 8 5 8 9 8 8 7 5 3 5 8 7 6
11 12 13 12 11 11 11 10 9 8 6 6 7 8 9 9 9 12 13 9 8 9 8 7 8 6 5 7 6 6 8 9 9 8 8 8 6 2 3 5 5 6 8 7 6 5 3 3 4 5 5 3 -1 -3 -3 -1 1 6 12 14 12 10 9 8 9 8 5 3 2 1 5 11 10 9 13 13 9 8 13 14 9 6 6 2 -1 4 9 9
9 10 12 13 13 12 11 12 11 10 9 7 6 7 7 7 10 12 11 10 10 10 9 9 9 7 7 6 6 6 6 6 8 9 9 10 10 8 6 4 3 5 7 7 7 6 5 5 5 5 6 3 -2 -3 -3 0 4 6 9 13 12 9 7 5 4 4 1 -1 1 3 7 14 12 6 10 14 10 7 11 16 14 10 8 4 2 6 10 10
8 8 9 11 13 14 13 13 12 11 11 9 8 7 7 8 11 13 13 11 10 10 10 10 8 7 8 7 6 6 5 5 5 7 9 11 10 11 10 7 5 5 6 6 6 4 5 8 8 5 4 2 -1 -4 -7 -4 5 7 4 6 7 6 7 7 5 4 2 0 1 3 9 14 11 5 7 10 7 7 10 12 16 17 14 12 10 12 13 10
10 8 7 7 9 12 13 13 14 13 12 11 10 8 8 8 9 14 15 11 11 11 11 12 9 6 7 8 7 6 6 6 5 4 7 9 9 11 13 13 13 14 10 5 3 3 4 6 9 8 6 1 -0 -1 -6 -6 3 7 3 0 2 3 4 6 6 7 8 6 4 4 9 13 8 2 2 1 1 6 8 8 11 13 15 16 14 15 15 11
12 12 11 9 8 9 10 11 13 14 12 13 12 11 11 9 9 14 14 10 11 12 11 13 12 9 8 8 8 8 7 7 6 5 6 8 9 10 13 14 16 20 20 12 4 0 2 4 5 7 7 4 2 3 3 2 3 4 2 2 5 5 1 0 7 15 17 15 11 6 6 9 6 -0 -3 -3 -2 4 7 7 8 10 11 13 12 13 14 11
Height
5901 5901 5901 5901 5901 5901 5901 5901 5901 5901 5901 5900 5900 5900 5899 5899 5898 5898 5897 5897 5896 5896 5895 5895 5894 5893 5893 5893 5892 5891 5891 5890 5889 5888 5887 5886 5885 5884 5884 5883 5882 5881 5881 5880 5880 5879 5878 5878 5877 5876 5876 5875 5875 5875 5875 5875 5875 5875 5875 5875 5876 5875 5875 5875 5875 5876 5877 5878 5879 5880 5881 5883 5883 5883 5884 5885 5884 5884 5884 5884 5884 5884 5884 5883 5883 5883 5883 5882
5901 5901 5901 5901 5901 5901 5901 5901 5901 5901 5900 5900 5900 5899 5899 5899 5898 5898 5897 5896 5896 5895 5895 5894 5893 5893 5893 5892 5892 5891 5890 5890 5889 5888 5887 5885 5885 5884 5883 5882 5881 5881 5881 5880 5880 5879 5878 5877 5877 5876 5875 5875 5874 5874 5874 5874 5875 5875 5875 5875 5875 5875 5875 5874 5874 5875 5876 5877 5878 5879 5880 5882 5883 5883 5884 5885 5884 5884 5884 5884 5884 5884 5884 5884 5883 5883 5883 5883
5901 5901 5901 5901 5901 5901 5901 5901 5901 5900 5900 5900 5899 5899 5898 5898 5898 5897 5897 5896 5895 5895 5894 5894 5893 5893 5892 5892 5891 5891 5890 5889 5888 5888 5886 5885 5884 5883 5882 5881 5881 5881 5880 5880 5879 5879 5878 5877 5877 5876 5875 5874 5874 5874 5874 5874 5875 5875 5875 5875 5875 5875 5874 5873 5873 5874 5875 5876 5877 5879 5879 5881 5883 5882 5883 5884 5884 5884 5884 5884 5884 5883 5884 5884 5884 5884 5884 5883
5901 5901 5901 5901 5901 5901 5901 5901 5900 5900 5900 5899 5899 5898 5898 5898 5897 5897 5896 5895 5895 5894 5894 5893 5892 5892 5892 5891 5891 5890 5889 5889 5888 5887 5886 5885 5883 5883 5882 5881 5880 5880 5879 5879 5878 5878 5878 5877 5877 5876 5875 5874 5874 5873 5874 5874 5874 5875 5875 5875 5875 5874 5874 5873 5873 5873 5874 5875 5876 5878 5879 5881 5882 5881 5882 5884 5884 5885 5884 5884 5884 5884 5884 5884 5884 5884 5884 5884
5901 5901 5901 5901 5901 5901 5900 5900 5900 5900 5899 5899 5898 5898 5897 5897 5897 5896 5895 5895 5894 5894 5893 5893 5892 5892 5891 5891 5890 5889 5889 5888 5887 5886 5885 5884 5883 5882 5881 5880 5880 5879 5878 5878 5877 5877 5877 5877 5876 5876 5875 5874 5874 5873 5873 5873 5873 5874 5874 5874 5874 5873 5873 5872 5872 5872 5873 5874 5874 5876 5878 5880 5880 5880 5881 5883 5884 5885 5885 5884 5884 5884 5884 5884 5885 5884 5884 5885
5901 5901 5900 5900 5900 5900 5900 5900 5899 5899 5899 5898 5898 5897 5897 5896 5896 5895 5895 5894 5894 5893 5893 5892 5891 5891 5891 5890 5889 5889 5888 5887 5886 5885 5884 5883 5883 5881 5880 5879 5879 5878 5878 5877 5877 5877 5877 5876 5876 5875 5874 5874 5873 5872 5872 5872 5873 5874 5874 5873 5873 5872 5872 5872 5871 5871 5871 5872 5873 5874 5876 5878 5879 5879 5880 5882 5883 5884 5885 5884 5884 5885 5885 5885 5885 5885 5885 5885
5900 5900 5900 5900 5900 5899 5899 5899 5899 5898 5898 5898 5897 5897 5896 5896 5895 5895 5894 5894 5893 5893 5892 5891 5891 5890 5890 5889 5888 5888 5887 5886 5885 5885 5884 5883 5882 5881 5879 5879 5878 5877 5877 5876 5876 5876 5876 5876 5875 5874 5873 5872 5872 5872 5872 5872 5872 5873 5873 5873 5872 5871 5871 5871 5870 5870 5870 5871 5871 5872 5875 5876 5877 5878 5880 5882 5883 5883 5884 5885 5885 5885 5885 5885 5885 5885 5885 5886
5899 5899 5899 5899 5899 5899 5898 5898 5898 5898 5897 5897 5896 5896 5896 5895 5895 5894 5894 5893 5893 5892 5891 5891 5890 5889 5889 5888 5887 5887 5886 5885 5884 5884 5883 5882 5881 5880 5878 5878 5877 5877 5876 5876 5876 5876 5875 5875 5874 5873 5873 5872 5872 5872 5872 5872 5872 5873 5872 5872 5872 5871 5870 5870 5869 5869 5869 5869 5869 5871 5874 5875 5876 5878 5879 5881 5881 5882 5884 5885 5885 5886 5885 5885 5884 5885 5886 5886
5899 5898 5898 5898 5898 5898 5898 5897 5897 5897 5897 5896 5896 5895 5895 5895 5894 5894 5893 5893 5892 5891 5891 5890 5889 5888 5887 5887 5886 5886 5885 5884 5883 5882 5882 5881 5880 5879 5878 5877 5877 5876 5875 5875 5875 5875 5874 5874 5873 5873 5873 5872 5871 5871 5872 5873 5872 5872 5872 5871 5871 5870 5870 5869 5868 5868 5868 5868 5868 5870 5872 5874 5876 5877 5879 5880 5881 5882 5883 5885 5886 5886 5886 5885 5885 5885 5886 5886
5898 5897 5897 5897 5897 5897 5897 5896 5896 5896 5896 5895 5895 5895 5894 5894 5893 5893 5893 5892 5891 5890 5890 5889 5888 5887 5886 5885 5885 5884 5884 5883 5882 5881 5881 5880 5880 5878 5877 5876 5876 5875 5875 5874 5874 5874 5874 5873 5873 5872 5872 5871 5871 5872 5873 5874 5873 5872 5871 5870 5870 5870 5869 5869 5867 5867 5867 5867 5868 5870 5871 5873 5875 5877 5879 5880 5880 5881 5883 5884 5885 5886 5885 5885 5885 5885 5886 5887
5896 5896 5896 5896 5896 5896 5896 5895 5895 5895 5895 5895 5894 5894 5893 5893 5892 5892 5892 5891 5890 5890 5889 5888 5887 5886 5885 5884 5883 5883 5882 5881 5880 5879 5879 5879 5878 5877 5876 5875 5875 5874 5874 5874 5874 5874 5873 5873 5872 5872 5872 5871 5872 5873 5874 5874 5873 5872 5871 5870 5870 5869 5869 5868 5867 5866 5866 5866 5868 5869 5871 5873 5875 5877 5878 5879 5880 5881 5882 5883 5884 5885 5885 5885 5885 5885 5886 5888
5895 5895 5895 5895 5895 5895 5895 5894 5894 5894 5894 5894 5893 5893 5892 5892 5891 5891 5891 5890 5889 5888 5888 5887 5886 5885 5884 5883 5882 5881 5881 5880 5879 5878 5878 5878 5877 5876 5875 5875 5874 5874 5873 5873 5873 5873 5873 5872 5872 5872 5872 5872 5873 5874 5875 5874 5873 5872 5871 5870 5869 5869 5868 5868 5867 5866 5866 5866 5868 5869 5871 5873 5874 5876 5877 5878 5879 5880 5882 5883 5883 5884 5885 5885 5885 5886 5886 5888
5894 5894 5894 5894 5894 5894 5894 5893 5893 5893 5893 5892 5892 5892 5891 5891 5890 5890 5889 5889 5888 5887 5886 5885 5884 5883 5882 5881 5881 5880 5879 5879 5878 5877 5877 5877 5876 5876 5875 5874 5873 5873 5872 5872 5872 5872 5872 5872 5872 5872 5872 5872 5873 5875 5875 5875 5874 5873 5872 5870 5870 5869 5868 5868 5867 5867 5866 5867 5868 5869 5870 5872 5873 5874 5876 5877 5878 5879 5881 5882 5883 5884 5884 5885 5885 5886 5886 5887
5892 5893 5893 5893 5893 5893 5892 5892 5892 5892 5892 5891 5891 5891 5890 5890 5889 5889 5888 5887 5886 5885 5884 5883 5883 5882 5880 5879 5879 5878 5878 5877 5877 5877 5876 5876 5875 5875 5874 5873 5873 5872 5871 5871 5871 5871 5871 5872 5871 5872 5872 5871 5873 5875 5875 5875 5874 5873 5873 5871 5870 5870 5869 5868 5867 5867 5867 5867 5867 5868 5869 5870 5872 5873 5875 5876 5877 5878 5879 5880 5882 5883 5884 5884 5885 5885 5886 5887
5891 5891 5891 5892 5891 5891 5891 5891 5891 5891 5890 5890 5890 5889 5889 5888 5888 5887 5887 5886 5884 5883 5882 5881 5881 5880 5879 5878 5877 5877 5876 5876 5876 5876 5876 5875 5875 5874 5873 5873 5872 5871 5870 5870 5870 5870 5871 5871 5871 5872 5871 5871 5873 5875 5875 5874 5874 5873 5873 5872 5871 5870 5869 5868 5868 5868 5868 5867 5867 5868 5869 5870 5871 5873 5874 5874 5876 5877 5878 5879 5881 5882 5883 5884 5884 5885 5886 5887
5890 5890 5890 5890 5890 5890 5889 5889 5889 5889 5888 5888 5888 5888 5887 5887 5886 5885 5885 5883 5882 5881 5880 5879 5879 5878 5877 5876 5876 5876 5875 5875 5875 5875 5875 5874 5874 5873 5873 5872 5871 5870 5870 5870 5870 5869 5870 5870 5870 5871 5871 5871 5873 5874 5874 5874 5874 5874 5873 5872 5872 5871 5870 5869 5869 5869 5868 5868 5867 5868 5869 5869 5870 5872 5873 5874 5876 5877 5877 5879 5880 5881 5882 5883 5883 5885 5886 5887
5889 5889 5889 5889 5888 5888 5888 5887 5887 5887 5887 5886 5886 5886 5885 5884 5884 5883 5882 5881 5880 5879 5877 5877 5876 5876 5876 5875 5874 5874 5874 5874 5874 5874 5874 5874 5873 5872 5872 5871 5871 5870 5869 5869 5869 5868 5869 5869 5870 5871 5871 5871 5873 5874 5874 5874 5874 5874 5873 5873 5872 5872 5871 5870 5870 5869 5869 5868 5867 5868 5868 5869 5869 5870 5872 5873 5876 5877 5878 5879 5880 5881 5882 5882 5883 5884 5885 5886
5887 5887 5887 5887 5887 5886 5886 5886 5885 5885 5885 5884 5884 5883 5882 5881 5881 5880 5880 5878 5877 5876 5875 5875 5874 5874 5874 5873 5873 5873 5873 5873 5873 5873 5873 5873 5872 5872 5871 5871 5870 5869 5868 5868 5868 5868 5868 5869 5869 5870 5870 5871 5872 5873 5874 5874 5874 5874 5874 5873 5873 5872 5872 5871 5870 5870 5870 5869 5868 5868 5869 5869 5869 5870 5871 5873 5875 5877 5878 5879 5880 5881 5881 5882 5883 5884 5884 5885
5886 5886 5886 5885 5885 5884 5883 5883 5883 5883 5883 5882 5881 5881 5880 5878 5878 5877 5877 5875 5874 5874 5873 5873 5872 5872 5872 5872 5871 5871 5871 5871 5871 5871 5871 5871 5871 5870 5870 5870 5869 5868 5868 5867 5867 5867 5868 5868 5869 5870 5870 5870 5871 5873 5874 5874 5874 5874 5874 5874 5873 5873 5873 5872 5871 5871 5871 5871 5870 5870 5870 5870 5870 5871 5872 5873 5875 5877 5878 5879 5880 5881 5881 5882 5882 5883 5884 5885
5884 5884 5884 5884 5883 5882 5881 5881 5881 5880 5880 5880 5878 5878 5877 5876 5875 5875 5874 5873 5872 5872 5871 5871 5870 5870 5870 5870 5870 5870 5870 5870 5870 5870 5869 5869 5869 5869 5869 5869 5868 5867 5867 5866 5866 5866 5867 5868 5869 5869 5870 5870 5871 5872 5873 5874 5874 5875 5875 5875 5874 5874 5874 5873 5873 5872 5872 5872 5872 5872 5872 5872 5872 5873 5873 5874 5875 5877 5879 5880 5881 5881 5882 5882 5882 5883 5884 5885
5882 5882 5882 5882 5881 5880 5879 5878 5878 5878 5877 5876 5875 5874 5874 5873 5873 5872 5871 5870 5870 5870 5869 5869 5868 5869 5869 5869 5868 5868 5868 5869 5868 5868 5868 5868 5868 5868 5868 5868 5867 5867 5866 5866 5866 5866 5867 5868 5869 5869 5869 5869 5870 5871 5872 5873 5874 5875 5875 5875 5875 5875 5874 5874 5874 5873 5873 5873 5874 5873 5873 5873 5873 5874 5874 5875 5875 5877 5878 5879 5880 5881 5882 5882 5882 5883 5883 5884
5880 5880 5880 5880 5879 5878 5877 5876 5875 5875 5874 5873 5872 5872 5871 5871 5870 5870 5869 5868 5869 5869 5868 5867 5867 5867 5868 5868 5867 5867 5867 5868 5867 5867 5867 5867 5867 5867 5867 5867 5866 5866 5866 5865 5865 5866 5866 5867 5868 5868 5867 5867 5868 5870 5871 5873 5874 5874 5875 5875 5875 5875 5875 5875 5874 5874 5874 5874 5874 5875 5874 5874 5874 5875 5875 5875 5876 5877 5878 5879 5880 5881 5881 5882 5882 5882 5883 5884
5877 5878 5878 5877 5876 5875 5874 5873 5873 5872 5871 5870 5870 5870 5869 5869 5868 5868 5867 5867 5868 5868 5866 5866 5866 5866 5867 5867 5866 5865 5866 5867 5867 5867 5867 5866 5866 5866 5866 5866 5865 5865 5865 5865 5865 5865 5866 5866 5866 5866 5866 5866 5867 5869 5870 5872 5873 5874 5875 5875 5875 5875 5875 5875 5875 5875 5875 5875 5875 5875 5875 5875 5875 5875 5875 5875 5875 5876 5877 5878 5879 5880 5881 5881 5882 5882 5882 5883
5875 5875 5875 5874 5874 5873 5871 5871 5870 5869 5869 5868 5867 5868 5867 5867 5867 5866 5866 5865 5866 5867 5865 5865 5865 5865 5865 5865 5864 5865 5865 5866 5866 5866 5866 5865 5865 5865 5865 5865 5864 5864 5864 5864 5865 5865 5865 5865 5865 5865 5866 5866 5867 5868 5870 5871 5873 5874 5874 5874 5874 5874 5874 5875 5875 5875 5875 5875 5875 5876 5876 5876 5876 5876 5875 5875 5875 5875 5876 5878 5879 5879 5880 5881 5881 5881 5882 5882
5872 5872 5872 5871 5871 5870 5869 5868 5868 5867 5866 5865 5865 5866 5865 5865 5865 5865 5864 5863 5864 5865 5864 5864 5864 5863 5863 5863 5864 5864 5864 5864 5865 5865 5865 5865 5865 5865 5865 5864 5864 5863 5863 5864 5864 5864 5865 5865 5865 5865 5866 5866 5866 5868 5870 5871 5873 5873 5874 5873 5873 5874 5875 5875 5875 5875 5875 5875 5876 5876 5876 5877 5877 5876 5876 5875 5875 5875 5876 5877 5878 5879 5880 5880 5880 5881 5881 5881
5869 5869 5869 5869 5867 5867 5867 5866 5865 5865 5864 5864 5863 5863 5863 5863 5863 5862 5862 5862 5862 5862 5862 5863 5863 5862 5862 5862 5863 5862 5862 5863 5863 5864 5864 5864 5864 5864 5864 5864 5863 5862 5862 5863 5863 5864 5865 5865 5865 5865 5865 5865 5866 5868 5870 5871 5872 5873 5873 5873 5873 5874 5875 5875 5875 5875 5875 5875 5876 5876 5876 5877 5877 5877 5876 5876 5875 5875 5876 5876 5877 5878 5879 5879 5880 5880 5880 5881
5867 5866 5866 5866 5864 5864 5864 5864 5863 5862 5862 5862 5861 5861 5861 5861 5860 5860 5860 5860 5860 5860 5860 5861 5861 5861 5861 5861 5861 5861 5862 5862 5862 5862 5862 5863 5863 5863 5864 5863 5862 5862 5862 5862 5863 5863 5864 5865 5864 5864 5865 5865 5867 5869 5870 5870 5871 5872 5872 5872 5873 5873 5874 5874 5874 5875 5875 5875 5875 5876 5876 5876 5877 5877 5877 5876 5876 5875 5875 5876 5877 5877 5878 5879 5879 5880 5880 5880
5864 5863 5863 5863 5862 5861 5862 5861 5861 5860 5860 5860 5859 5859 5859 5859 5859 5858 5858 5858 5858 5858 5859 5859 5859 5859 5859 5860 5860 5860 5860 5861 5861 5861 5861 5862 5862 5862 5863 5863 5862 5861 5861 5862 5862 5863 5864 5864 5864 5864 5865 5866 5867 5869 5869 5869 5870 5870 5871 5872 5872 5872 5873 5873 5874 5874 5874 5874 5875 5875 5875 5876 5876 5876 5876 5876 5876 5876 5876 5876 5876 5877 5878 5878 5879 5880 5880 5880
5861 5860 5859 5859 5859 5858 5859 5859 5859 5858 5858 5858 5857 5857 5857 5857 5857 5856 5856 5856 5856 5857 5857 5857 5857 5858 5858 5858 5859 5859 5859 5860 5860 5860 5860 5860 5861 5861 5862 5862 5862 5861 5861 5861 5862 5862 5863 5863 5863 5864 5865 5865 5866 5867 5867 5869 5869 5869 5870 5871 5871 5872 5872 5873 5873 5873 5874 5874 5875 5875 5875 5875 5876 5876 5875 5875 5876 5876 5876 5876 5876 5877 5877 5878 5878 5879 5879 5880
5857 5857 5856 5856 5857 5856 5856 5857 5857 5856 5856 5856 5855 5855 5855 5855 5855 5855 5855 5855 5855 5855 5856 5856 5856 5856 5857 5857 5857 5858 5858 5858 5859 5859 5859 5859 5859 5860 5861 5861 5861 5861 5861 5861 5862 5862 5862 5862 5862 5863 5864 5865 5865 5865 5867 5868 5868 5868 5869 5871 5871 5871 5872 5872 5872 5873 5873 5874 5874 5874 5874 5875 5875 5875 5875 5875 5876 5876 5876 5876 5877 5877 5877 5877 5877 5878 5878 5879
5854 5854 5854 5854 5854 5854 5854 5854 5854 5854 5854 5854 5854 5853 5853 5853 5853 5853 5853 5853 5853 5854 5854 5855 5855 5855 5856 5856 5856 5857 5857 5857 5858 5858 5858 5858 5858 5859 5860 5860 5860 5860 5861 5861 5861 5861 5861 5862 5863 5863 5864 5864 5864 5865 5866 5867 5867 5868 5869 5870 5870 5871 5871 5871 5872 5872 5873 5874 5874 5874 5874 5874 5875 5875 5875 5875 5876 5876 5876 5876 5876 5877 5876 5876 5877 5877 5877 5878
5851 5851 5851 5851 5852 5852 5852 5852 5852 5852 5852 5852 5852 5851 5851 5851 5851 5851 5851 5852 5851 5852 5853 5854 5854 5854 5855 5855 5855 5855 5856 5856 5856 5856 5856 5857 5857 5858 5858 5859 5859 5860 5860 5861 5861 5861 5862 5862 5863 5863 5864 5863 5864 5864 5864 5865 5866 5867 5868 5869 5870 5870 5870 5871 5871 5872 5873 5874 5874 5873 5873 5873 5875 5875 5875 5875 5876 5876 5876 5876 5876 5876 5875 5875 5876 5876 5876 5877
5848 5848 5848 5849 5849 5850 5850 5850 5850 5850 5850 5850 5850 5850 5850 5850 5849 5849 5850 5850 5850 5850 5851 5852 5853 5853 5854 5854 5854 5854 5854 5855 5855 5855 5855 5855 5856 5856 5857 5857 5858 5859 5860 5860 5860 5861 5862 5862 5862 5863 5863 5863 5863 5864 5864 5865 5866 5867 5868 5869 5869 5869 5870 5871 5871 5871 5872 5873 5873 5873 5872 5873 5874 5874 5874 5875 5875 5875 5875 5875 5875 5874 5874 5874 5874 5874 5875 5875
5845 5846 5846 5846 5847 5847 5847 5847 5847 5848 5847 5848 5848 5848 5848 5848 5847 5847 5847 5848 5848 5849 5850 5851 5851 5852 5852 5852 5852 5852 5852 5853 5853 5853 5853 5854 5854 5855 5855 5856 5857 5858 5859 5860 5860 5860 5861 5861 5862 5862 5862 5863 5863 5864 5865 5865 5866 5867 5867 5868 5869 5869 5869 5870 5870 5870 5871 5872 5872 5872 5872 5872 5873 5873 5874 5874 5874 5874 5874 5874 5873 5873 5873 5873 5873 5873 5873 5874
5842 5843 5843 5843 5844 5844 5844 5844 5845 5845 5845 5845 5846 5846 5846 5845 5845 5845 5845 5846 5847 5847 5848 5848 5849 5850 5850 5849 5850 5850 5850 5851 5851 5851 5852 5852 5852 5853 5853 5854 5855 5857 5858 5859 5860 5860 5860 5861 5861 5862 5862 5862 5863 5864 5864 5864 5865 5865 5866 5867 5868 5868 5868 5868 5869 5869 5870 5870 5871 5871 5871 5871 5872 5872 5873 5873 5873 5873 5873 5872 5872 5872 5872 5872 5871 5871 5871 5872
5839 5840 5840 5840 5841 5841 5841 5842 5842 5842 5842 5843 5843 5844 5843 5843 5843 5843 5843 5844 5845 5845 5846 5846 5847 5848 5848 5848 5848 5849 5849 5850 5850 5850 5850 5850 5850 5851 5852 5853 5854 5855 5857 5858 5859 5859 5860 5860 5860 5861 5861 5862 5862 5863 5863 5865 5865 5864 5866 5867 5867 5867 5867 5867 5867 5867 5868 5869 5869 5870 5870 5870 5870 5871 5872 5872 5872 5872 5871 5871 5871 5871 5871 5870 5870 5870 5870 5870
5835 5836 5837 5837 5837 5838 5838 5839 5839 5839 5840 5840 5841 5841 5841 5840 5841 5841 5841 5841 5842 5843 5844 5844 5845 5845 5845 5846 5846 5847 5848 5848 5849 5849 5849 5849 5849 5850 5851 5851 5852 5854 5855 5856 5856 5857 5858 5859 5859 5860 5861 5861 5861 5862 5863 5864 5864 5864 5865 5866 5866 5867 5866 5867 5867 5866 5866 5867 5867 5868 5869 5870 5870 5870 5871 5871 5871 5871 5870 5870 5869 5870 5870 5869 5869 5869 5869 5869
5831 5832 5834 5834 5834 5834 5835 5835 5836 5836 5837 5837 5838 5838 5838 5838 5838 5838 5838 5839 5840 5841 5841 5842 5842 5843 5843 5844 5844 5845 5846 5847 5848 5848 5848 5848 5848 5849 5849 5849 5850 5851 5851 5852 5853 5854 5855 5857 5857 5858 5860 5860 5861 5862 5863 5863 5863 5864 5864 5864 5865 5866 5865 5866 5866 5865 5865 5866 5866 5867 5867 5868 5869 5869 5869 5869 5869 5869 5869 5868 5868 5868 5869 5869 5868 5868 5868 5868
5829 5828 5830 5830 5831 5831 5831 5831 5832 5833 5834 5834 5835 5835 5835 5834 5834 5835 5836 5836 5837 5838 5838 5839 5839 5840 5840 5841 5842 5843 5844 5845 5846 5847 5846 5847 5847 5847 5847 5848 5848 5849 5849 5849 5851 5852 5853 5855 5855 5857 5858 5859 5860 5861 5862 5862 5862 5863 5862 5863 5864 5864 5864 5865 5865 5865 5865 5865 5865 5866 5866 5867 5868 5868 5867 5867 5867 5867 5866 5866 5867 5867 5868 5868 5867 5867 5867 5867
5826 5825 5826 5826 5827 5827 5827 5827 5828 5829 5830 5831 5831 5831 5831 5831 5831 5832 5833 5833 5834 5835 5835 5835 5836 5837 5838 5839 5839 5840 5841 5843 5844 5845 5846 5846 5846 5846 5845 5846 5847 5847 5848 5849 5851 5851 5852 5853 5854 5855 5856 5857 5859 5860 5861 5861 5861 5861 5861 5862 5863 5863 5863 5864 5864 5864 5865 5865 5865 5865 5865 5866 5866 5866 5865 5865 5865 5865 5865 5865 5866 5866 5867 5867 5867 5866 5866 5866
5823 5822 5822 5823 5823 5823 5823 5823 5824 5825 5826 5827 5827 5827 5828 5828 5828 5828 5829 5830 5830 5831 5832 5832 5833 5833 5834 5836 5837 5837 5839 5840 5842 5844 5844 5844 5844 5844 5843 5844 5845 5846 5847 5848 5849 5850 5851 5853 5854 5853 5854 5856 5858 5859 5859 5859 5859 5860 5860 5861 5861 5862 5863 5863 5863 5864 5864 5864 5864 5864 5864 5865 5865 5864 5864 5863 5863 5864 5864 5864 5864 5865 5865 5866 5866 5866 5865 5865
5819 5818 5819 5820 5819 5819 5818 5819 5820 5820 5821 5822 5823 5824 5825 5825 5823 5823 5825 5826 5827 5827 5828 5829 5830 5830 5831 5832 5833 5834 5836 5837 5839 5841 5843 5843 5842 5841 5841 5842 5844 5844 5846 5847 5848 5849 5850 5851 5852 5852 5853 5855 5856 5856 5857 5857 5858 5858 5858 5859 5859 5860 5861 5862 5862 5863 5863 5863 5863 5863 5863 5864 5864 5863 5863 5863 5863 5863 5863 5863 5863 5864 5864 5865 5865 5865 5865 5865
5814 5814 5815 5816 5815 5815 5815 5815 5816 5816 5816 5817 5818 5819 5820 5820 5819 5818 5820 5822 5823 5823 5824 5825 5826 5827 5828 5828 5829 5830 5832 5834 5835 5838 5840 5840 5839 5838 5840 5842 5843 5843 5844 5846 5846 5847 5847 5848 5850 5851 5852 5852 5853 5853 5855 5855 5856 5856 5857 5857 5858 5859 5859 5860 5861 5861 5861 5862 5862 5862 5862 5863 5863 5863 5863 5862 5862 5862 5862 5863 5863 5864 5864 5864 5864 5865 5864 5865
5810 5809 5809 5811 5811 5810 5810 5811 5811 5812 5812 5813 5814 5814 5815 5815 5814 5814 5815 5817 5817 5817 5819 5821 5822 5823 5824 5824 5825 5827 5828 5830 5831 5833 5835 5836 5836 5837 5839 5841 5842 5842 5843 5844 5845 5845 5845 5847 5848 5849 5849 5849 5850 5850 5852 5853 5854 5854 5855 5856 5857 5858 5858 5859 5860 5860 5860 5861 5861 5861 5862 5862 5862 5862 5862 5862 5861 5861 5862 5862 5863 5863 5863 5863 5863 5864 5864 5864
5805 5804 5804 5805 5806 5805 5805 5806 5807 5807 5808 5808 5809 5809 5809 5810 5810 5809 5810 5811 5811 5813 5815 5817 5818 5818 5819 5820 5821 5822 5824 5826 5827 5828 5830 5832 5833 5834 5836 5838 5839 5841 5842 5842 5842 5842 5844 5845 5845 5846 5846 5846 5847 5848 5850 5851 5852 5852 5853 5854 5855 5856 5857 5858 5858 5858 5859 5859 5859 5860 5861 5861 5860 5861 5861 5861 5860 5860 5860 5861 5862 5862 5862 5862 5863 5863 5863 5863
5801 5799 5798 5799 5800 5800 5800 5801 5802 5802 5802 5804 5804 5804 5804 5805 5805 5804 5805 5804 5805 5809 5811 5811 5813 5814 5814 5815 5817 5818 5820 5822 5823 5824 5826 5827 5828 5830 5832 5834 5836 5837 5839 5840 5840 5840 5841 5842 5843 5844 5844 5845 5847 5848 5848 5849 5850 5850 5851 5852 5853 5854 5855 5855 5856 5856 5857 5858 5858 5859 5859 5859 5860 5860 5860 5859 5859 5859 5859 5860 5860 5861 5861 5861 5862 5862 5862 5862
5796 5795 5793 5793 5794 5795 5795 5796 5796 5796 5797 5798 5799 5798 5799 5799 5799 5799 5800 5799 5800 5804 5806 5807 5807 5809 5810 5811 5812 5813 5815 5817 5819 5821 5822 5823 5824 5825 5828 5830 5832 5833 5835 5836 5837 5838 5838 5840 5841 5841 5842 5844 5845 5845 5845 5846 5847 5848 5849 5849 5850 5851 5852 5853 5854 5855 5855 5856 5857 5858 5857 5858 5859 5859 5858 5858 5858 5858 5859 5859 5860 5860 5860 5860 5860 5860 5861 5861
5790 5790 5789 5787 5787 5789 5790 5790 5791 5791 5791 5792 5793 5793 5793 5793 5793 5794 5795 5795 5796 5798 5800 5801 5802 5803 5804 5806 5808 5809 5810 5812 5814 5816 5818 5820 5821 5822 5824 5826 5828 5830 5831 5832 5833 5834 5835 5837 5838 5839 5840 5842 5842 5842 5842 5843 5844 5845 5846 5847 5848 5849 5850 5851 5852 5853 5853 5854 5855 5856 5855 5856 5857 5857 5857 5857 5857 5857 5858 5858 5858 5858 5858 5859 5859 5859 5859 5859
5785 5784 5784 5782 5781 5781 5782 5784 5785 5785 5785 5786 5787 5787 5787 5787 5788 5789 5790 5791 5791 5792 5794 5795 5797 5798 5799 5801 5803 5804 5806 5807 5808 5811 5813 5815 5817 5819 5820 5822 5823 5826 5827 5828 5829 5830 5831 5833 5834 5836 5838 5839 5839 5840 5840 5841 5841 5842 5843 5844 5845 5846 5847 5849 5850 5850 5851 5852 5853 5854 5854 5855 5856 5855 5855 5856 5856 5856 5856 5856 5857 5857 5857 5857 5857 5857 5857 5857
5779 5778 5778 5777 5776 5775 5775 5776 5778 5779 5779 5779 5780 5781 5782 5782 5783 5784 5785 5786 5786 5786 5787 5789 5790 5792 5794 5796 5798 5800 5801 5803 5804 5805 5808 5811 5813 5815 5816 5817 5819 5821 5823 5824 5824 5825 5827 5829 5830 5832 5834 5835 5836 5837 5838 5838 5839 5840 5840 5841 5842 5844 5845 5846 5847 5848 5849 5850 5851 5851 5852 5853 5854 5854 5854 5854 5854 5854 5854 5855 5855 5855 5855 5855 5855 5855 5855 5855
5773 5772 5772 5771 5770 5769 5769 5768 5769 5771 5772 5773 5773 5774 5776 5777 5778 5779 5780 5780 5780 5781 5782 5784 5785 5786 5788 5790 5792 5794 5796 5798 5799 5800 5802 5804 5807 5809 5811 5812 5814 5816 5818 5820 5821 5821 5822 5824 5826 5827 5830 5831 5832 5833 5834 5835 5836 5836 5837 5838 5840 5841 5842 5843 5845 5846 5847 5848 5848 5849 5850 5852 5853 5852 5852 5853 5853 5853 5853 5853 5853 5853 5853 5852 5852 5852 5852 5852
5766 5766 5766 5765 5764 5763 5763 5762 5762 5763 5764 5765 5767 5768 5770 5771 5772 5773 5773 5774 5774 5775 5777 5778 5780 5781 5782 5784 5786 5788 5790 5792 5794 5795 5797 5799 5801 5804 5806 5807 5808 5810 5812 5814 5816 5817 5818 5819 5821 5823 5825 5827 5828 5829 5830 5831 5831 5831 5833 5836 5837 5838 5840 5841 5842 5844 5844 5845 5846 5846 5847 5849 5850 5850 5851 5851 5851 5851 5851 5851 5851 5851 5850 5850 5850 5850 5850 5850